Regional Weather Roundup
Issued by NWS San Diego, CA

Home | Current Version | Previous Version | Text Only | Print | Product List | Glossary On
Versions: 1 2 3 4 5 6 7 8 9 10 11 12 13 14 15 16 17 18 19 20 21 22 23 24 25 26 27 28 29 30 31 32 33 34 35 36 37 38 39 40 41 42 43 44 45 46 47 48 49 50
000
ASUS46 KSGX 080011
RWRSGX

SAN DIEGO HOURLY WEATHER ROUNDUP
NATIONAL WEATHER SERVICE SAN DIEGO CA
500 PM PDT TUE JUL 07 2015

NOTE: "FAIR" INDICATES FEW OR NO CLOUDS BELOW 12,000 FEET WITH NO
SIGNIFICANT WEATHER AND/OR OBSTRUCTIONS TO VISIBILITY.

CAZ042-043-060-061-PZZ750-775-080100-

GREATER SAN DIEGO AREA

CITY           SKY/WX    TMP DP  RH WIND       PRES   REMARKS
LINDBERGH FLD  MOSUNNY   71  58  63 W9        29.92S
POINT LOMA       N/A     70  59  67 W10         N/A
NATIONAL CITY    N/A     72  62  70 SW5       29.91F
CHULA VISTA      N/A     70  63  77 W5        29.84F
IMPERIAL BEACH PTSUNNY   69  59  70 W10       29.92S
BROWN FIELD    MOSUNNY   70  59  68 NW12      29.90F
MIRAMAR MCAS   MOSUNNY   73  58  59 W8        29.90F
MONTGOMERY FLD MOSUNNY   71  59  65 SW9       29.90F

$$

NORTH SAN DIEGO COUNTY

CITY           SKY/WX    TMP DP  RH WIND       PRES   REMARKS
CAMP PENDLETON SUNNY     72  60  66 SW8       29.88F
OCEANSIDE AP   CLOUDY    70  60  70 W8        29.88F
OCEANSIDE HBR    N/A     68  63  84 SW3       29.92F
VISTA            N/A     70  63  77 W3        29.87F
CARLSBAD       CLOUDY    67  60  78 SW6       29.89F
DEL MAR          N/A     67  62  82 CALM      29.92F
LA JOLLA SCRIP   N/A    N/A N/A N/A SW7       29.88F
FALLBROOK        N/A     75  64  69 S5        29.87F
ESCONDIDO        N/A     74  62  66 W8        29.89F
SAN MARCOS       N/A     69  62  79 CALM      29.87F
POWAY            N/A     76  63  64 SW2       29.89F

$$

EAST SAN DIEGO COUNTY

CITY           SKY/WX    TMP DP  RH WIND       PRES   REMARKS
RAMONA         SUNNY     76  60  57 W14       29.90F
SANTEE LAKES     N/A     75  62  64 SW5       29.88S
LA MESA          N/A     73  60  65 CALM      29.65
JAMUL            N/A     76  62  61 CALM      29.87F
DESCANSO N       N/A     79  59  50 W3        29.73F
CAMPO            N/A     82  54  37 SW18      29.88F

$$

ORANGE COUNTY AND THE LOS ANGELES BASIN

CITY           SKY/WX    TMP DP  RH WIND       PRES   REMARKS
JOHN WAYNE AP  MOSUNNY   73  60  63 SW10      29.89F
LAKE FOREST FR   N/A     77  60  56 W5        29.78F
SANTA ANA        N/A     77  63  61 SW2       29.84F
HUNTINGTON BCH   N/A     72  64  75 S5        29.91F
LOS ALAMITOS   MOSUNNY   73  62  70 SW12      29.88F
FULLERTON      SUNNY     76  60  57 S10       29.87F
LONG BEACH     SUNNY     75  61  61 S8        29.88F
L.A. AP        PTSUNNY   69  60  73 W12       29.90F
L.A. DOWNTOWN  SUNNY     72  60  66 CALM      29.88F

$$

THE INLAND EMPIRE

CITY           SKY/WX    TMP DP  RH WIND       PRES   REMARKS
CORONA         SUNNY     80  61  52 W15G21    29.86F
CHINO          MOSUNNY   84  59  42 W16G23    29.87F
ONTARIO        MOSUNNY   84  58  40 W16       29.86F
SAN BERNARDINO SUNNY     86  50  28 SW13      29.86F HAZE
RIVERSIDE AP   SUNNY     82  59  45 W13G22    29.86F
MORENO VALLEY    N/A     87  63  43 NW6       29.85F
MARCH ARB      SUNNY     84  59  43 NW14      29.87F
HORSETHIEF CYN   N/A     83  59  43 NW12      29.88F
PERRIS           N/A     85  60  43 W8          N/A
MENIFEE          N/A     88  63  43 S6        29.90F
HEMET EAST       N/A     88  43  20 W7        29.87F
FRENCH VALLEY  FAIR      79  59  50 S10G16    29.88F
TEMECULA         N/A     83  60  45 SW10      29.81F

$$

SAN BERNARDINO AND RIVERSIDE COUNTY MOUNTAINS

CITY           SKY/WX    TMP DP  RH WIND       PRES   REMARKS
BIG BEAR AP    SUNNY     72  36  26 SW5       30.16F
ANGELUS OAKS     N/A     77  49  36 CALM      29.69F
PINE COVE        N/A     73  46  38 W2        29.79F

$$

SOUTHERN DESERT INCLUDING THE COACHELLA VALLEY

CITY           SKY/WX    TMP DP  RH WIND       PRES   REMARKS
PALM SPRINGS   SUNNY    105  48  14 NW17G23   29.69F HX 101
THOUSAND PALMS   N/A    104  49  15 NW13      29.66F HX 100
PALM DESERT      N/A    107  53  16 N7        30.89R HX 105
THERMAL        SUNNY    108  46  12 VRB5      29.61F HX 104
BLYTHE         SUNNY    108  50  14 S16       29.66F HX 105
IMPERIAL AP    MOSUNNY  107  45  12 W3        29.63F HX 102
EL CENTRO NAS  MOSUNNY  108  41  10 VRB3      29.65F HX 102
YUMA AZ        MOSUNNY  107  47  13 S10       29.66F HX 103
MEXICALI       SUNNY    106  45  12 E6        29.65F HX 101

$$

UPPER DESERT

CITY           SKY/WX    TMP DP  RH WIND       PRES   REMARKS
VICTORVILLE AP SUNNY     93  23   8 S24G32    29.87F
HESPERIA         N/A     86  40  20 W16       29.87F
APPLE VALLEY     N/A     87  34  15 S21G30    29.95S
PALMDALE       SUNNY     89  41  18 W25G35    29.87F
LANCASTER      SUNNY     90  42  18 SW25G32   29.86F
EDWARDS AFB    MOSUNNY   96  23   7 SW23G32   29.81S
DAGGETT        SUNNY    102  29   7 MISG      29.75F HX  95
29 PALMS N     SUNNY    100  44  14 SW14G22   29.83F HX  96
NEEDLES        MOSUNNY  109  40   9 S15G22    29.68F HX 103

$$

REGIONAL REPORTS

CITY           SKY/WX    TMP DP  RH WIND       PRES   REMARKS
SANTA BARBARA  SUNNY     72  61  68 SE7       29.88F
SANDBERG       SUNNY     81  31  16 S12G22    30.04F
LAS VEGAS NV   MOSUNNY  100  48  17 S7        29.75F HX  96
PHOENIX AZ     MOSUNNY  107  48  14 W15       29.70F HX 103
TIJUANA        SUNNY     70  57  64 W7        29.93S
ENSENADA NW      N/A     68  32  26 NW9       29.88F

$$

OFFSHORE ISLANDS

CITY           SKY/WX    TMP DP  RH WIND       PRES   REMARKS
CATALINA ARPT  PTSUNNY   64  58  80 W13       29.94F
SAN CLEMENTE I PTSUNNY   67  59  75 W15       29.93F
SAN NICOLAS IS SUNNY    N/A N/A N/A W28G37    29.91F

$$

MARINE AND OFFSHORE BUOY REPORTS

STATION/POSITION SKY/WX   TEMP    WIND        PRES    SWELL
                          AIR SEA DIR/SP/G            HT/PER/DIR
                          (F)     (DEG/KT/KT) (MB)    (FT/S/D)
TANNER BANKS               64 63  300/ 14/ 16 1013.9F   3/260/13
S CLEMENTE BASIN           65 68  290/ 14/ 17 1012.4F   3/200/19
SAN NICOLAS IS.               63                N/A     3/210/13
SO. S. ROSA ISLA           63 63  300/ 14/ 17 1012.6F   3/13
W. S. BARBARA CH           62 61  300/ 16/ 17 1012.8F   3/260/14
M. S. BARBARA CH           65 64  290/ 14/ 17 1012.0F
S. MONICA BASIN            66 68  260/  6/  8 1012.4F   3/170/19
S PEDRO CHANNEL               65                N/A     2/220/20
DANA POINT                    69                N/A     2/200/13
OCEANSIDE OFFSHR              70                N/A     2/230/20
TORREY PINES OTR              70                N/A     2/230/20
LA JOLLA 1                 66 70  280/  6/  8 1012.9F
MISSION BAY BUOY              70                N/A     2/210/20
SAN DIEGO BAY                 70              1013.5F
POINT LOMA SOUTH              69                N/A     2/220/13

$$



USA.gov is the U.S. government's official web portal to all federal, state and local government web resources and services.